FW9333 Weather Reports


Display with metric or nautical units.
time (UTC)temp
F
wind
direction
speed
MPH
gust
MPH
rain 1hr
in
rain 24hr
in
rain mn
in
humidity
%
barometer
mb
20260504044529 46 76 0.0 0.0 0.00 0.00 0.00 73 1014.5
20260504043022 46 76 0.0 0.0 0.00 0.00 0.00 72 1014.5
20260504041520 46 76 0.0 0.0 0.00 0.00 0.00 69 1014.4
20260504040018 46 76 0.0 0.0 0.00 0.00 0.00 67 1014.4
20260504034520 46 76 0.0 0.0 0.00 0.00 0.00 69 1014.5
20260504033017 47 76 0.0 0.0 0.00 0.00 0.00 68 1014.5
20260504031517 47 76 0.0 0.0 0.00 0.00 0.00 66 1014.5
20260504030019 47 76 0.0 0.0 0.00 0.00 0.00 65 1014.7
20260504024517 48 76 0.0 0.0 0.00 0.00 0.00 68 1014.7
20260504023016 48 76 0.0 0.0 0.00 0.00 0.00 68 1014.6
20260504021515 49 76 0.0 0.0 0.00 0.00 0.00 67 1014.6
20260504020019 49 76 0.0 0.0 0.00 0.00 0.00 67 1014.5
20260504014515 50 76 0.0 0.0 0.00 0.00 0.00 68 1014.6
20260504013023 50 76 0.0 0.0 0.00 0.00 0.00 66 1014.6
20260504011513 50 76 0.0 0.0 0.00 0.00 0.00 66 1014.4
20260504010013 51 76 0.0 0.0 0.00 0.00 0.00 66 1014.3
20260504004513 51 76 0.0 0.0 0.00 0.00 0.00 66 1014.3
20260504003022 52 76 0.0 0.0 0.00 0.00 0.00 65 1014.3
20260504001512 52 76 0.0 0.0 0.00 0.00 0.00 63 1014.2
20260504000011 53 76 0.0 0.0 0.00 0.00 0.00 63 1014.2
20260503234511 54 76 0.0 0.0 0.00 0.00 0.00 61 1014.3
20260503233010 55 76 0.0 1.0 0.00 0.00 0.00 60 1014.3
20260503231510 55 74 0.0 1.0 0.00 0.00 0.00 59 1014.3
20260503230011 56 35 0.0 5.0 0.00 0.00 0.00 46 1014.2
20260503224511 56 72 0.0 2.0 0.00 0.00 0.00 47 1014.4
20260503223006 57 57 1.0 5.0 0.00 0.00 0.00 44 1014.4
20260503221507 57 117 0.0 4.0 0.00 0.00 0.00 39 1014.6
20260503220015 57 113 0.0 3.0 0.00 0.00 0.00 45 1014.6
20260503214505 58 15 0.0 2.0 0.00 0.00 0.00 42 1014.7
20260503213004 58 99 0.0 7.0 0.00 0.00 0.00 41 1014.6
20260503211505 58 209 0.0 5.0 0.00 0.00 0.00 42 1014.7
20260503210002 58 160 0.0 4.0 0.00 0.00 0.00 44 1014.7
20260503204601 59 109 0.0 7.0 0.00 0.00 0.00 40 1014.9
20260503203110 58 98 1.0 5.0 0.00 0.00 0.00 37 1015.0
20260503201600 59 15 0.0 7.0 0.00 0.00 0.00 39 1015.3
20260503200056 59 33 1.0 6.0 0.00 0.00 0.00 39 1015.4
20260503194558 59 90 0.0 7.0 0.00 0.00 0.00 40 1015.6
20260503193053 59 49 1.0 8.0 0.00 0.00 0.00 35 1016.0
20260503191551 59 156 0.0 4.0 0.00 0.00 0.00 40 1016.2
20260503190048 59 248 0.0 10.0 0.00 0.00 0.00 37 1016.4
20260503184603 58 89 0.0 3.0 0.00 0.00 0.00 37 1016.5
20260503183049 58 130 2.0 7.0 0.00 0.00 0.00 41 1016.6
20260503181546 58 37 0.0 6.0 0.00 0.00 0.00 39 1016.8
20260503180040 57 38 1.0 8.0 0.00 0.00 0.00 41 1017.0
20260503174539 57 74 0.0 6.0 0.00 0.00 0.00 38 1017.2
20260503173040 57 96 0.0 4.0 0.00 0.00 0.00 41 1017.4
20260503171559 57 45 2.0 12.0 0.00 0.00 0.00 44 1017.4
20260503081537 37 130 0.0 0.0 0.00 0.00 0.00 84 1017.2
20260503071524 39 130 0.0 0.0 0.00 0.00 0.00 81 1016.7